Date String (YYYY-MM-DD hh:mm:ss) UTC,Instrument flags,Ambient pressure (hPa),Sample flow (lpm),Bypass flow (lpm),Sample temperature (°C),Ambient temperature (°C),ASC tube jacket temperature (°C),LED temperature (°C),Box temperature (°C),Sample RH (%),Span deviation,Mass concentration (μg/m³),Mass concentration (μg/m³),Mass concentration (μg/m³)
DateTimeUTC,F1_M11,P_M11,Q1_M11,Q2_M11,T1_M11,T2_M11,T3_M11,T4_M11,T5_M11,U1_M11,ZSPAN_M11,X0_M11,X2_M11,X1_M11
2022-11-15 04:00:00,,0829.0,5.00,0.00,21.6,20.2,00.0,30.6,23.4,12.3,0000.0,0011.72,0005.53,0004.88
2022-11-15 04:01:00,,0828.7,5.00,0.00,21.6,20.0,00.0,30.6,23.3,12.4,0000.0,0010.79,0005.48,0004.85
2022-11-15 04:02:00,,0828.6,5.00,0.00,21.6,19.8,00.0,30.6,23.2,12.5,0000.0,0010.54,0005.45,0004.81
2022-11-15 04:03:00,,0828.8,5.00,0.00,21.5,19.7,00.0,30.6,23.2,12.5,0000.0,0010.76,0005.43,0004.79
2022-11-15 04:04:00,,0828.7,5.00,0.00,21.5,19.6,00.0,30.5,23.2,12.6,0000.0,0010.66,0005.40,0004.80
2022-11-15 04:05:00,,0828.7,5.00,0.00,21.4,19.5,00.0,30.5,23.1,12.8,0000.0,0010.68,0005.38,0004.78
2022-11-15 04:06:00,,0828.8,5.00,0.00,21.4,19.4,00.0,30.5,23.1,12.8,0000.0,0010.20,0005.35,0004.77
2022-11-15 04:07:00,,0828.7,5.00,0.00,21.3,19.3,00.0,30.5,23.0,12.9,0000.0,0010.09,0005.33,0004.77
2022-11-15 04:08:00,,0828.8,5.00,0.00,21.3,19.2,00.0,30.4,22.9,13.0,0000.0,0010.29,0005.33,0004.78
2022-11-15 04:09:00,,0828.7,5.00,0.00,21.3,19.2,00.0,30.4,22.9,13.1,0000.0,0010.98,0005.31,0004.76
2022-11-15 04:10:00,,0828.8,5.00,0.00,21.2,19.1,00.0,30.4,22.9,13.2,0000.0,0011.43,0005.34,0004.76
2022-11-15 04:11:00,,0828.9,5.01,0.00,21.2,19.7,00.0,30.3,23.0,13.3,0000.0,0012.01,0005.36,0004.76
2022-11-15 04:12:00,,0829.0,4.99,0.00,21.3,20.9,00.0,30.2,23.2,13.4,0000.0,0012.04,0005.37,0004.75
2022-11-15 04:13:00,,0829.0,4.99,0.00,21.4,21.4,00.0,30.3,23.4,13.2,0000.0,0011.71,0005.36,0004.73
2022-11-15 04:14:00,,0828.9,5.00,0.00,21.4,20.8,00.0,30.3,23.3,13.2,0000.0,0011.61,0005.34,0004.72
2022-11-15 04:15:00,,0828.9,5.00,0.00,21.4,20.3,00.0,30.4,23.2,13.1,0000.0,0013.36,0005.36,0004.72
2022-11-15 04:16:00,,0828.9,5.02,0.00,21.4,19.9,00.0,30.4,23.1,13.1,0000.0,0013.91,0005.40,0004.73
2022-11-15 04:17:00,,0828.6,4.99,0.00,21.3,19.6,00.0,30.4,23.0,13.3,0000.0,0013.93,0005.41,0004.74
2022-11-15 04:18:00,,0828.5,4.99,0.00,21.3,19.4,00.0,30.4,22.9,13.5,0000.0,0014.37,0005.41,0004.74
2022-11-15 04:19:00,,0828.5,5.02,0.00,21.2,19.2,00.0,30.3,22.8,13.6,0000.0,0014.12,0005.40,0004.74
2022-11-15 04:20:00,,0828.5,5.00,0.00,21.2,19.0,00.0,30.3,22.7,13.7,0000.0,0013.45,0005.40,0004.75
2022-11-15 04:21:00,,0828.8,4.99,0.00,21.1,18.9,00.0,30.3,22.6,13.9,0000.0,0013.12,0005.34,0004.74
2022-11-15 04:22:00,,0828.6,5.00,0.00,21.0,18.9,00.0,30.2,22.6,13.9,0000.0,0013.36,0005.36,0004.75
2022-11-15 04:23:00,,0828.8,5.02,0.00,21.1,19.9,00.0,30.1,22.8,14.0,0000.0,0013.64,0005.33,0004.73
2022-11-15 04:24:00,,0828.6,4.99,0.00,21.2,21.1,00.0,30.1,23.1,14.0,0000.0,0013.48,0005.28,0004.72
2022-11-15 04:25:00,,0828.7,4.98,0.00,21.3,21.1,00.0,30.1,23.2,14.0,0000.0,0012.84,0005.24,0004.71
2022-11-15 04:26:00,,0829.1,5.01,0.00,21.3,20.5,00.0,30.2,23.1,14.0,0000.0,0011.18,0005.20,0004.68
2022-11-15 04:27:00,,0829.2,5.00,0.00,21.2,20.0,00.0,30.2,22.9,14.2,0000.0,0010.68,0005.14,0004.66
2022-11-15 04:28:00,,0828.9,5.00,0.00,21.2,19.6,00.0,30.2,22.8,14.4,0000.0,0010.35,0005.09,0004.64
2022-11-15 04:29:00,,0828.7,5.01,0.00,21.1,19.3,00.0,30.2,22.7,14.6,0000.0,0010.20,0005.07,0004.63
2022-11-15 04:30:00,,0828.7,5.01,0.00,21.1,19.1,00.0,30.2,22.6,14.7,0000.0,0010.82,0005.08,0004.62
2022-11-15 04:31:00,,0828.8,5.00,0.00,21.0,19.0,00.0,30.2,22.6,14.8,0000.0,0011.14,0005.05,0004.61
2022-11-15 04:32:00,,0829.2,4.99,0.00,21.0,18.8,00.0,30.1,22.5,14.9,0000.0,0011.59,0005.05,0004.59
2022-11-15 04:33:00,,0829.3,4.99,0.00,20.9,18.7,00.0,30.1,22.5,15.0,0000.0,0011.26,0005.03,0004.58
2022-11-15 04:34:00,,0829.3,5.00,0.00,20.9,18.9,00.0,30.1,22.5,15.1,0000.7,0010.71,0004.99,0004.57
2022-11-15 04:35:00,,0828.9,5.02,0.00,21.0,20.2,00.0,30.0,22.7,15.1,0000.5,0011.35,0005.01,0004.57
2022-11-15 04:36:00,,0828.8,4.99,0.00,21.1,21.3,00.0,30.0,23.0,15.0,0000.0,0012.12,0005.03,0004.58
2022-11-15 04:37:00,,0828.9,4.98,0.00,21.2,21.0,00.0,30.0,23.1,15.0,0000.0,0012.17,0005.07,0004.58
2022-11-15 04:38:00,,0828.8,5.01,0.00,21.1,20.4,00.0,30.1,22.9,15.0,0000.0,0012.00,0005.06,0004.58
2022-11-15 04:39:00,,0828.8,5.00,0.00,21.1,20.0,00.0,30.1,22.8,15.1,0000.8,0012.10,0005.06,0004.58
2022-11-15 04:40:00,,0828.9,5.00,0.00,21.1,19.7,00.0,30.1,22.7,15.1,0002.2,0012.60,0005.09,0004.58
2022-11-15 04:41:00,,0828.9,5.00,0.00,21.0,19.4,00.0,30.1,22.7,15.2,0002.4,0012.12,0005.12,0004.60
2022-11-15 04:42:00,,0828.9,5.01,0.00,21.0,19.2,00.0,30.1,22.6,15.3,0002.3,0011.89,0005.14,0004.62
2022-11-15 04:43:00,,0828.8,5.00,0.00,21.0,19.1,00.0,30.1,22.6,15.4,0002.6,0011.70,0005.15,0004.64
2022-11-15 04:44:00,,0828.9,5.00,0.00,20.9,18.9,00.0,30.1,22.5,15.5,0002.6,0011.39,0005.16,0004.67
2022-11-15 04:45:00,,0828.9,5.00,0.00,20.9,18.8,00.0,30.0,22.5,15.6,0002.2,0011.44,0005.22,0004.71
2022-11-15 04:46:00,,0828.9,5.00,0.00,20.8,18.8,00.0,30.0,22.4,15.7,0002.0,0011.15,0005.25,0004.74
2022-11-15 04:47:00,,0828.9,5.00,0.00,20.8,18.8,00.0,30.0,22.4,15.7,0001.6,0010.27,0005.26,0004.76
2022-11-15 04:48:00,,0828.9,5.02,0.00,20.9,19.9,00.0,29.9,22.6,15.8,0001.0,0010.24,0005.29,0004.79
2022-11-15 04:49:00,,0828.9,5.00,0.00,21.0,21.1,00.0,29.8,22.9,15.7,0000.5,0010.22,0005.36,0004.83
2022-11-15 04:50:00,,0828.8,4.99,0.00,21.1,21.2,00.0,29.9,23.1,15.7,0000.5,0010.25,0005.44,0004.90
2022-11-15 04:51:00,,0828.8,4.99,0.00,21.1,20.7,00.0,29.9,23.0,15.8,0000.2,0009.66,0005.48,0004.96
2022-11-15 04:52:00,,0829.1,5.02,0.00,21.1,20.2,00.0,30.0,22.9,15.8,-000.3,0009.53,0005.50,0005.01
2022-11-15 04:53:00,,0829.0,5.00,0.00,21.1,19.8,00.0,30.0,22.8,15.9,-000.1,0009.36,0005.55,0005.05
2022-11-15 04:54:00,,0829.2,4.98,0.00,21.0,19.5,00.0,30.0,22.7,16.0,-000.4,0009.28,0005.63,0005.11
2022-11-15 04:55:00,,0829.3,5.01,0.00,21.0,19.3,00.0,30.0,22.6,16.0,-000.3,0009.19,0005.67,0005.15
2022-11-15 04:56:00,,0829.3,5.01,0.00,21.0,19.1,00.0,30.0,22.5,16.1,-000.0,0009.28,0005.70,0005.19
2022-11-15 04:57:00,,0829.4,4.98,0.00,20.9,18.9,00.0,30.0,22.5,16.2,0000.0,0009.23,0005.71,0005.21
2022-11-15 04:58:00,,0829.2,5.00,0.00,20.9,18.8,00.0,30.0,22.4,16.3,0000.0,0009.27,0005.76,0005.24
2022-11-15 04:59:00,,0829.2,5.01,0.00,20.8,18.7,00.0,29.9,22.4,16.3,0000.0,0009.39,0005.79,0005.27
